TimeEST,TemperatureF,Dew PointF,Humidity,Sea Level PressureIn,VisibilityMPH,Wind Direction,Wind SpeedMPH,Gust SpeedMPH,PrecipitationIn,Events,Conditions,WindDirDegrees,DateUTC
12:56 AM,30.0,25.0,82,30.02,9.0,South,3.5,-,N/A,,Overcast,170,2012-12-29 05:56:00
1:56 AM,30.0,26.1,85,30.01,9.0,Calm,Calm,-,N/A,,Overcast,0,2012-12-29 06:56:00
2:56 AM,30.0,25.0,82,30.01,9.0,NE,3.5,-,N/A,,Overcast,40,2012-12-29 07:56:00
3:56 AM,30.0,26.1,85,29.97,9.0,East,4.6,-,N/A,,Overcast,100,2012-12-29 08:56:00
4:56 AM,30.0,25.0,82,29.92,9.0,East,6.9,-,N/A,,Overcast,100,2012-12-29 09:56:00
5:22 AM,30.2,24.8,80,29.89,2.0,East,6.9,-,0.00,Snow,Light Snow,90,2012-12-29 10:22:00
5:27 AM,30.2,24.8,80,29.89,0.5,East,9.2,-,0.00,Snow,Snow,100,2012-12-29 10:27:00
5:54 AM,28.4,26.6,93,29.89,1.0,ESE,4.6,-,0.02,Snow,Light Snow,120,2012-12-29 10:54:00
5:56 AM,28.9,27.0,92,29.90,1.0,ESE,5.8,-,0.02,Snow,Light Snow,120,2012-12-29 10:56:00
6:09 AM,28.4,26.6,93,29.88,2.0,East,6.9,-,0.00,Snow,Light Snow,100,2012-12-29 11:09:00
6:28 AM,28.4,26.6,93,29.85,3.0,East,5.8,-,0.00,Snow,Light Snow,100,2012-12-29 11:28:00
6:56 AM,28.9,26.1,89,29.86,7.0,ESE,9.2,-,0.00,,Overcast,110,2012-12-29 11:56:00
7:36 AM,28.4,26.6,93,29.84,1.0,ESE,6.9,-,0.00,Snow,Light Snow,120,2012-12-29 12:36:00
7:54 AM,28.4,26.6,93,29.82,0.8,ESE,6.9,-,0.01,Snow,Light Snow,110,2012-12-29 12:54:00
7:56 AM,28.9,27.0,92,29.84,0.8,East,6.9,-,0.01,Snow,Light Snow,100,2012-12-29 12:56:00
8:10 AM,28.4,26.6,93,29.81,0.8,ESE,6.9,-,0.00,Snow,Light Snow,110,2012-12-29 13:10:00
8:12 AM,28.4,26.6,93,29.82,0.5,ESE,8.1,-,0.00,Fog-Snow,Light Snow,110,2012-12-29 13:12:00
8:56 AM,28.9,27.0,92,29.80,0.5,ESE,8.1,-,0.03,Fog-Snow,Snow,110,2012-12-29 13:56:00
9:23 AM,28.4,26.6,93,29.78,0.5,ESE,8.1,-,0.03,Fog-Snow,Snow,110,2012-12-29 14:23:00
9:46 AM,28.4,26.6,93,29.77,1.0,East,5.8,-,0.04,Snow,Light Snow,90,2012-12-29 14:46:00
9:56 AM,28.9,27.0,92,29.78,1.0,East,5.8,-,0.04,Snow,Light Snow,90,2012-12-29 14:56:00
10:54 AM,28.4,26.6,93,29.74,0.8,East,4.6,-,0.02,Snow,Light Snow,100,2012-12-29 15:54:00
10:56 AM,28.9,27.0,92,29.75,0.8,ESE,4.6,-,0.02,Snow,Light Snow,110,2012-12-29 15:56:00
11:02 AM,28.4,26.6,93,29.73,0.5,East,5.8,-,0.01,Fog-Snow,Snow,100,2012-12-29 16:02:00
11:56 AM,28.9,28.0,96,29.70,0.5,ESE,4.6,-,0.07,Fog-Snow,Snow,110,2012-12-29 16:56:00
12:29 PM,30.2,28.4,93,29.66,0.8,East,5.8,-,0.02,Snow,Light Snow,100,2012-12-29 17:29:00
12:41 PM,30.2,28.4,93,29.65,0.5,East,4.6,-,0.03,Fog-Snow,Snow,100,2012-12-29 17:41:00
12:56 PM,30.0,28.0,92,29.65,1.2,East,3.5,-,0.03,Snow,Light Snow,90,2012-12-29 17:56:00
1:56 PM,30.0,28.0,92,29.62,1.5,East,3.5,-,0.01,Snow,Light Snow,100,2012-12-29 18:56:00
2:56 PM,30.0,28.0,92,29.59,1.0,Calm,Calm,-,0.01,Snow,Light Snow,0,2012-12-29 19:56:00
3:17 PM,30.2,28.4,93,29.58,2.0,North,3.5,-,0.01,Snow,Light Snow,10,2012-12-29 20:17:00
3:56 PM,30.0,27.0,88,29.59,2.0,NNW,3.5,-,0.01,Snow,Light Snow,330,2012-12-29 20:56:00
4:17 PM,30.2,28.4,93,29.58,3.0,NNW,3.5,-,0.00,,Overcast,330,2012-12-29 21:17:00
4:56 PM,30.2,26.6,86,29.58,4.0,NW,4.6,-,N/A,,Overcast,310,2012-12-29 21:56:00
4:59 PM,30.2,26.6,86,29.58,4.0,NW,5.8,-,N/A,,Overcast,310,2012-12-29 21:59:00
5:56 PM,28.9,27.0,92,29.62,5.0,WNW,8.1,-,N/A,,Mostly Cloudy,290,2012-12-29 22:56:00
6:20 PM,28.4,26.6,93,29.61,5.0,NW,9.2,-,N/A,,Mostly Cloudy,310,2012-12-29 23:20:00
6:56 PM,33.1,27.0,78,29.65,9.0,NW,13.8,-,N/A,,Mostly Cloudy,310,2012-12-29 23:56:00
7:56 PM,33.1,26.1,75,29.67,10.0,NW,15.0,-,N/A,,Overcast,320,2012-12-30 00:56:00
8:56 PM,34.0,25.0,70,29.68,10.0,NW,21.9,27.6,N/A,,Overcast,320,2012-12-30 01:56:00
9:56 PM,34.0,25.0,70,29.72,10.0,NW,18.4,-,N/A,,Mostly Cloudy,320,2012-12-30 02:56:00
10:56 PM,34.0,24.1,67,29.75,10.0,NNW,13.8,23.0,N/A,,Mostly Cloudy,330,2012-12-30 03:56:00
11:56 PM,33.1,23.0,66,29.78,10.0,NW,12.7,-,N/A,,Overcast,310,2012-12-30 04:56:00